Weather Roundup
Issued by NWS

Home | Current Version | Previous Version | Text Only | Print | Product List | Glossary On
Versions: 1 2 3 4 5 6 7 8 9 10 11 12 13 14 15 16 17 18 19 20 21 22 23 24 25 26 27 28 29 30 31 32 33 34 35 36 37 38 39 40 41 42 43 44 45 46 47 48 49 50
000
NZUS93 KARX 261710
HRRWXR

CURRENT HOURLY OBSERVATIONS ACROSS
MUCH OF THE UPPER MISSISSIPPI VALLEY
NATIONAL WEATHER SERVICE LA CROSSE WI
1200 PM CDT THU MAR 26 2015


...SOUTHEAST MINNESOTA...


CITY           SKY/WX    TMP DP  RH WIND       PRES   REMARKS
ROCHESTER      CLOUDY    28  21  75 NW16      30.08S WCI  16
ROCHESTER/MAYO CLOUDY    29  22  75 W13G20    30.09S WCI  19
WINONA           N/A    N/A N/A N/A NW9       30.09R
AUSTIN         CLOUDY    28  19  69 NW14G22   30.10S WCI  17
ALBERT LEA     MOSUNNY   30  21  69 NW12G17   30.12S WCI  21
DODGE CENTER   CLOUDY    28  21  74 NW14      30.09S WCI  17
PRESTON        CLOUDY    28  20  71 NW14G23   30.08S WCI  17
OWATONNA       CLOUDY    30  19  64 NW16      30.12S WCI  19
FARIBAULT      CLOUDY    30  19  64 NW13G20   30.13S WCI  20
$$

...ELSEWHERE IN MINNESOTA...


CITY           SKY/WX    TMP DP  RH WIND       PRES   REMARKS
MINNEAPOLIS    PTSUNNY   35  16  45 N13       30.12S WCI  26
INTNL FALLS    MOSUNNY   22   8  55 NE9G16    30.18S WCI  12
DULUTH         MOSUNNY   24  11  57 NW14G21   30.08R WCI  12
RED WING       CLOUDY    36  16  44 N9        30.09F WCI  29
REDWOOD FALLS  SUNNY     33  20  58 N13       30.17F WCI  24
MANKATO        SUNNY     30  18  59 NW15      30.15S WCI  19
WORTHINGTON    CLOUDY    34  19  55 N16       30.16F WCI  23
FAIRMONT       MOSUNNY   36  19  51 NW17      30.14S WCI  25
$$

...SOUTHWEST WISCONSIN...


CITY           SKY/WX    TMP DP  RH WIND       PRES   REMARKS
LA CROSSE      CLOUDY    34  21  59 NW15      30.06F WCI  24
PRAIRIE DU CHI MOSUNNY   34  20  57 W17G23    30.06F WCI  24
BOSCOBEL       CLOUDY    36  21  54 NW9       30.05S WCI  29
LONE ROCK      CLOUDY    37  21  52 NW13G24   30.02S WCI  29
PLATTEVILLE    CLOUDY    35  24  65 W14       30.03S WCI  25
FORT MC COY    CLOUDY    34  19  54 NW13      30.05S WCI  25
CAMP DOUGLAS   CLOUDY    34  23  64 W10       30.01S WCI  26
VIROQUA        CLOUDY    32  22  65 N10G17    30.02S WCI  23
WIS DELLS      CLOUDY    33  19  56 NW15      30.00R WCI  23
$$

...ELSEWHERE IN WISCONSIN...


CITY           SKY/WX    TMP DP  RH WIND       PRES   REMARKS
MILWAUKEE      CLOUDY    38  19  46 W15       29.96F WCI  29
MADISON        CLOUDY    36  20  52 NW10      29.99S WCI  28
GREEN BAY      CLOUDY    33  21  61 NW17      29.95S WCI  22
EAU CLAIRE     CLOUDY    32  18  56 N10G18    30.06R WCI  24
BLACK RVR FLS  CLOUDY    34  16  47 N12G18    30.04S WCI  25
MEDFORD        CLOUDY    25  15  65 NW13      30.00R WCI  14
WAUSAU         CLOUDY    27  15  61 NW13G21   29.97S WCI  16
WIS RAPIDS     CLOUDY    30  18  60 NW15      30.01R WCI  19
MARSHFIELD     CLOUDY    30  17  58 NW18      30.00R WCI  18
RICE LAKE      CLOUDY    30  15  53 NW9G16    30.09S WCI  21
$$

...NORTHEAST IOWA...


CITY           SKY/WX    TMP DP  RH WIND       PRES   REMARKS
DECORAH        CLOUDY    32  19  59 NW14G21   30.06S WCI  22
MASON CITY     SUNNY     36  22  56 NW21G29   30.12F WCI  25
CHARLES CITY   MOSUNNY   32  25  74 N20       30.10F WCI  20
OELWEIN        SUNNY     36  23  60 NW21G26   30.08F WCI  24
$$

...ELSEWHERE IN IOWA...


CITY           SKY/WX    TMP DP  RH WIND       PRES   REMARKS
DES MOINES     MOSUNNY   44  21  40 N18G25    30.15F
IOWA CITY      SUNNY     42  19  39 NW24G31   30.10F
FORT DODGE     CLOUDY    39  23  52 NW12      30.16S WCI  32
$$

...NORTHERN ILLINOIS...


CITY           SKY/WX    TMP DP  RH WIND       PRES   REMARKS
CHICAGO-OHARE  PTSUNNY   40  26  57 W9        29.96F WCI  34
CHICAGO-MIDWAY PTSUNNY   42  27  55 N5G21     29.97F
MOLINE         SUNNY     41  24  51 NW15G25   30.05F
ROCKFORD       PTSUNNY   37  22  54 NW12      30.02F WCI  29
PEORIA         MOSUNNY   43  25  49 NW10      30.04F
$$

NOTE: "FAIR" INDICATES FEW OR NO CLOUDS BELOW 12,000 FEET WITH NO
SIGNIFICANT WEATHER AND/OR OBSTRUCTIONS TO VISIBILITY. WIND
SPEEDS ARE IN MILES-PER-HOUR.



USA.gov is the U.S. government's official web portal to all federal, state and local government web resources and services.